Weather History for Warsaw, Poland

Change the Weather History Date:

Saturday, May 4, 2013

  Actual Average Record
Temperature  
Mean Temperature 56 °F -  
Max Temperature 62 °F 67 °F 80 °F (2002)
Min Temperature 50 °F 47 °F 30 °F (2011)
Degree Days  
Heating Degree Days 9    
Growing Degree Days 6 (Base 50)    
Moisture  
Dew Point 51 °F    
Average Humidity 83    
Maximum Humidity 100    
Minimum Humidity 57    
Precipitation  
Precipitation 0.01 in 0.08 in - ()
Sea Level Pressure  
Sea Level Pressure 29.98 in    
Wind  
Wind Speed 6 mph ()    
Max Wind Speed 12 mph    
Max Gust Speed -    
Visibility 6.5 miles    
Events Rain    
Averages and records for this station are not official NWS values.
T = Trace of Precipitation, MM = Missing Value Source: Averaged Metar Reports

Daily Weather History Graph

Daily Weather History Graph

Search for Another Location

Airport:

Trip Planner

Search our weather history database for the weather conditions in past years. The results will help you decide how hot, cold, wet, or windy it might be!

Date:

Astronomy

May. 04, 2013 Rise Set
Actual Time 5:00 AM CEST 8:06 PM CEST
Civil Twilight 4:20 AM CEST 8:46 PM CEST
Nautical Twilight 3:28 AM CEST 9:39 PM CEST
Astronomical Twilight 2:20 AM CEST 10:48 PM CEST
Moon 2:31 AM CEST (5/4) 2:06 PM CEST (5/4)
Length of Visible Light 16h 26m
Length of Day
15h 06m
Waning Crescent, 29% of the Moon is Illuminated
May 4
Waning Crescent
May 10
New
May 18
First Quarter
May 25
Full
May 31
Last Quarter

Hourly Weather History & Observations

Time (CEST) Temp. Dew Point Humidity Pressure Visibility Wind Dir Wind Speed Gust Speed Precip Events Conditions
12:00 AM 53.6 °F 51.8 °F 94% 29.89 in 6.2 mi North 8.1 mph - N/A   Mostly Cloudy
12:30 AM 53.6 °F 50.0 °F 88% 29.89 in 6.2 mi North 8.1 mph - N/A   Mostly Cloudy
1:00 AM 51.8 °F 51.8 °F 100% 29.89 in 6.2 mi North 9.2 mph - N/A   Mostly Cloudy
1:30 AM 51.8 °F 50.0 °F 94% 29.89 in 6.2 mi North 5.8 mph - N/A   Mostly Cloudy
2:00 AM 53 °F 51 °F 91% 29.92 in 6 mi North 6.7 mph - -   Partly Cloudy
2:00 AM 51.8 °F 50.0 °F 94% 29.89 in 6.2 mi North 8.1 mph - N/A   Mostly Cloudy
2:30 AM 51.8 °F 50.0 °F 94% 29.89 in 6.2 mi North 5.8 mph - N/A   Mostly Cloudy
3:00 AM 51.8 °F 50.0 °F 94% 29.89 in 6.2 mi North 5.8 mph - N/A   Mostly Cloudy
3:30 AM 51.8 °F 50.0 °F 94% 29.89 in 6.2 mi NNW 4.6 mph - N/A   Mostly Cloudy
4:00 AM 51.8 °F 50.0 °F 94% 29.89 in 6.2 mi NNW 5.8 mph - N/A   Mostly Cloudy
4:30 AM 51.8 °F 50.0 °F 94% 29.92 in 6.2 mi North 6.9 mph - N/A   Mostly Cloudy
5:00 AM 51 °F 50 °F 95% 29.93 in 4 mi NNW 8.9 mph - -   Mist
5:00 AM 51.8 °F 50.0 °F 94% 29.92 in 5.0 mi North 5.8 mph - N/A   Mostly Cloudy
5:30 AM 51.8 °F 50.0 °F 94% 29.92 in 4.3 mi NNW 5.8 mph - N/A   Mostly Cloudy
6:00 AM 51.8 °F 50.0 °F 94% 29.92 in 4.3 mi NW 6.9 mph - N/A   Mostly Cloudy
6:30 AM 51.8 °F 50.0 °F 94% 29.92 in 4.3 mi NNW 8.1 mph - N/A   Mostly Cloudy
7:00 AM 51.8 °F 50.0 °F 94% 29.95 in 3.7 mi North 6.9 mph - N/A   Mostly Cloudy
7:30 AM 51.8 °F 50.0 °F 94% 29.95 in 3.7 mi North 5.8 mph - N/A   Mostly Cloudy
8:00 AM 51 °F 49 °F 92% 29.97 in 4 mi NNW 6.7 mph - -   Mist
8:00 AM 50.0 °F 48.2 °F 94% 29.95 in 3.7 mi NNW 8.1 mph - N/A   Mostly Cloudy
8:30 AM 51.8 °F 50.0 °F 94% 29.95 in 3.7 mi NNW 6.9 mph - N/A   Mostly Cloudy
9:00 AM 53.6 °F 50.0 °F 88% 29.98 in 4.3 mi NNW 5.8 mph - N/A   Mostly Cloudy
9:30 AM 53.6 °F 50.0 °F 88% 29.98 in 5.0 mi NW 6.9 mph - N/A   Mostly Cloudy
10:00 AM 53.6 °F 50.0 °F 88% 29.98 in 6.2 mi NNW 8.1 mph - N/A   Mostly Cloudy
10:30 AM 55.4 °F 50.0 °F 82% 29.98 in 6.2 mi NW 5.8 mph - N/A   Mostly Cloudy
11:00 AM 56 °F 51 °F 76% 30.01 in 9 mi NW 6.7 mph - -   Partly Cloudy
11:00 AM 55.4 °F 50.0 °F 82% 30.01 in 6.2 mi NNW 5.8 mph - N/A   Scattered Clouds
11:30 AM 59.0 °F 50.0 °F 72% 30.01 in 6.2 mi West 11.5 mph - N/A   Scattered Clouds
12:00 PM 59.0 °F 51.8 °F 77% 30.01 in 6.2 mi NNW 9.2 mph - N/A   Scattered Clouds
12:30 PM 59.0 °F 50.0 °F 72% 30.01 in 6.2 mi NNW 8.1 mph - N/A   Mostly Cloudy
1:00 PM 60.8 °F 50.0 °F 68% 30.01 in 6.2 mi NNW 9.2 mph - N/A   Scattered Clouds
1:30 PM 60.8 °F 48.2 °F 63% 30.01 in 6.2 mi North 5.8 mph - N/A   Scattered Clouds
2:00 PM 61 °F 50 °F 57% 30.02 in 12 mi NW 4.5 mph - -   Mostly Cloudy
2:00 PM 60.8 °F 50.0 °F 68% 30.01 in 6.2 mi North 5.8 mph - N/A   Mostly Cloudy
2:30 PM 60.8 °F 50.0 °F 68% 30.01 in 6.2 mi NW 6.9 mph - N/A   Mostly Cloudy
3:00 PM 62.6 °F 50.0 °F 63% 30.01 in 6.2 mi NW 8.1 mph - N/A   Mostly Cloudy
3:30 PM 60.8 °F 51.8 °F 72% 30.01 in 6.2 mi NW 6.9 mph - N/A   Mostly Cloudy
4:00 PM 60.8 °F 50.0 °F 68% 30.01 in 6.2 mi NW 6.9 mph - N/A   Scattered Clouds
4:30 PM 60.8 °F 50.0 °F 68% 30.01 in 6.2 mi WNW 6.9 mph - N/A   Scattered Clouds
5:00 PM 61 °F 50 °F 59% 30.03 in 19 mi West 4.5 mph - -   Partly Cloudy
5:00 PM 60.8 °F 50.0 °F 68% 30.01 in 6.2 mi West 5.8 mph - N/A   Partly Cloudy
5:30 PM 60.8 °F 51.8 °F 72% 30.01 in 6.2 mi West 4.6 mph - N/A Rain Light Rain Showers
6:00 PM 60.8 °F 51.8 °F 72% 30.01 in 6.2 mi West 4.6 mph - N/A   Partly Cloudy
6:30 PM 60.8 °F 53.6 °F 77% 30.01 in 6.2 mi SW 4.6 mph - N/A   Partly Cloudy
7:00 PM 60.8 °F 53.6 °F 77% 30.01 in - SW 4.6 mph - N/A   Clear
7:30 PM 60.8 °F 53.6 °F 77% 30.04 in - SW 4.6 mph - N/A   Clear
8:00 PM 59 °F 53 °F 74% 30.05 in 19 mi SSW 2.2 mph - -   Partly Cloudy
8:00 PM 59.0 °F 53.6 °F 82% 30.04 in - SW 5.8 mph - N/A   Clear
8:30 PM 57.2 °F 53.6 °F 88% 30.04 in - SW 5.8 mph - N/A   Clear
9:00 PM 55.4 °F 51.8 °F 88% 30.06 in - SW 5.8 mph - N/A   Clear
9:30 PM 55.4 °F 51.8 °F 88% 30.06 in - SW 4.6 mph - N/A   Clear
10:00 PM 55.4 °F 51.8 °F 88% 30.06 in - SW 5.8 mph - N/A   Clear
10:30 PM 55.4 °F 51.8 °F 88% 30.06 in - WSW 5.8 mph - N/A   Clear
11:00 PM 56 °F 52 °F 81% 30.09 in 12 mi SSW 2.2 mph - -   Partly Cloudy
11:00 PM 55.4 °F 51.8 °F 88% 30.06 in - SW 5.8 mph - N/A   Clear
11:30 PM 53.6 °F 51.8 °F 94% 30.06 in - SW 4.6 mph - N/A   Clear